Location: Riley Place
(34.8112°N, 106.3364°W)
Time: 00:11:48
(UTC+00:00)

Daily predictions for brighter satellites

Satellite Brightness Start Highest point End
(mag) Time Altitude Azimuth Time Altitude Azimuth Time Altitude Azimuth
Cosmos 1842 4.1 01:27:37 10° NNE 01:31:01 29° ENE 01:34:24 10° SE
Cosmos 1937 Rocket 3.5 01:32:18 10° S 01:37:32 69° ESE 01:42:44 10° NNE
Cosmos 1743 4.3 01:35:26 10° SSW 01:39:04 41° W 01:42:43 10° N
Cosmos 2112 Rocket 4.2 01:35:19 10° N 01:40:25 53° ENE 01:45:30 10° SSE
Cosmos 1975 Rocket 3.8 01:39:41 10° NNE 01:43:33 31° ENE 01:47:23 10° SE
Cosmos 1680 Rocket 3.5 01:38:57 10° NNW 01:44:10 69° ENE 01:49:23 10° SSE
Cosmos 2233 Rocket 4.1 01:38:13 10° S 01:44:28 88° W 01:50:43 10° N
Cosmos 1707 4.4 01:42:40 10° NE 01:44:53 15° ENE 01:46:33 12° ESE
MOS 1 Rocket 3.6 01:40:53 10° NNE 01:44:56 36° E 01:48:52 10° SSE
Meteor 2-11 Rocket 4.4 01:38:56 10° S 01:45:02 76° E 01:51:12 10° N
COSMO-SKYMED 1 4.5 01:42:53 10° N 01:46:50 35° WNW 01:50:47 10° SW
ISS -3.5 01:45:15 10° SW 01:48:36 72° NW 01:51:58 10° NE
Sich 1 Rocket 3.9 01:48:56 10° SSE 01:53:10 45° E 01:57:29 10° NNE
USA 234 3.6 01:49:27 10° ENE 01:55:35 42° SE 02:01:42 10° SSW
H-2A R/B 2.1 01:55:27 10° SSE 02:00:10 50° ENE 02:05:00 10° N
Cosmos 1437 2.6 01:58:31 10° N 02:01:27 52° E 02:04:21 10° SSE
Cosmos 158 Rocket 4.3 01:57:16 10° NNW 02:02:29 70° WSW 02:07:30 10° S
Iridium 4 Rocket 3.9 01:58:31 10° S 02:03:12 66° W 02:08:23 10° N
ARGOS 3.5 01:59:53 10° SE 02:04:53 42° ENE 02:09:55 10° N
SJ 16-02 4.4 02:03:21 10° WSW 02:06:24 18° WNW 02:09:28 10° NNW
IRIS 4.4 02:02:44 10° SW 02:06:37 51° SSE 02:07:55 26° E
Okean 2 Rocket 3.3 02:08:32 10° SSE 02:12:51 47° E 02:17:10 10° NNE
HJ-1C 3.2 02:11:04 10° SSE 02:14:20 80° E 02:17:38 10° N
CZ-2C R/B 3.1 02:09:16 10° NNE 02:14:28 39° E 02:19:39 10° SSE
Okean-O 4.3 02:12:44 10° SSW 02:16:47 36° W 02:20:52 10° NNW
Cosmos 1844 4.4 02:12:47 10° SSE 02:17:42 31° ESE 02:22:36 10° NE
BREEZE-M DEB (TANK) 3.9 02:18:16 10° N 02:19:17 14° NNE 02:19:17 14° NNE
SJ-11-01 4.2 02:15:12 10° SSE 02:19:55 90° S 02:24:39 10° NNW
Cosmos 2263 Rocket 3.9 02:16:38 10° SW 02:21:40 35° WNW 02:26:44 10° N
Cosmos 1300 Rocket 3.5 02:20:16 10° S 02:24:34 63° E 02:28:56 10° NNE
DELTA 2 R/B (1) 3.6 02:19:11 10° WNW 02:24:45 76° NNE 02:27:38 29° E
CZ-2C R/B 3.4 02:20:11 10° S 02:25:15 67° W 02:30:38 10° NNW
USA 186 2.9 02:26:23 27° NE 02:26:23 27° NE 02:28:24 10° N
ATLAS 2AS CENTAUR R/B 3.8 02:21:20 10° SSE 02:27:23 25° ESE 02:33:32 10° ENE
Cosmos 1844 Rocket 2.8 02:23:20 10° S 02:28:39 49° ESE 02:34:00 10° NNE
YAOGAN 1 4.2 02:26:23 10° SSW 02:30:19 34° W 02:34:17 10° NNW
GOES 2 Rocket 4.1 02:28:57 10° SW 02:32:30 27° SSE 02:32:56 26° SSE
Ariane Rocket 3.3 02:30:49 30° ESE 02:32:49 45° ENE 02:37:38 10° N
Cosmos 2285 Rocket 4.3 02:30:19 10° SSE 02:36:03 39° E 02:41:50 10° NE
Cosmos 1513 Rocket 4.5 02:30:59 10° S 02:37:18 87° W 02:43:33 10° N
ATLAS 5 CENTAUR R/B 3.2 02:33:59 10° NW 02:37:54 87° SW 02:52:42 10° SSE
IRS-1A Rocket 4.4 02:38:16 27° SE 02:41:29 58° ENE 02:47:14 10° N
Cosmos 2298 Rocket 3.9 02:37:25 10° SSW 02:42:45 87° ESE 02:48:06 10° NNE
Cosmos 1943 3.5 02:37:54 10° NNW 02:43:31 65° WSW 02:48:37 13° S
CENTAUR R/B 4.3 02:38:06 10° N 02:44:44 26° NE 02:47:17 23° ENE
Meteor 1-15 Rocket 4.3 02:39:23 10° SSE 02:44:45 51° E 02:50:14 10° NNE
Cosmos 1464 Rocket 4.1 02:39:37 10° S 02:45:44 77° W 02:51:54 10° N
Meteor 1-12 Rocket 4.5 02:40:01 10° SSW 02:45:58 75° W 02:51:50 10° N
CZ-4 R/B 4.4 02:44:12 10° SW 02:47:02 17° W 02:49:52 10° NW
Cosmos 1536 Rocket 4.0 02:43:24 10° N 02:47:10 44° ENE 02:47:10 44° ENE
MetOp-A 4.2 02:49:17 46° ESE 02:50:18 53° ENE 02:55:29 10° N
Cosmos 2151 Rocket 3.6 02:49:40 10° S 02:54:06 80° W 02:58:35 10° N
CZ-2C R/B 1.5 02:53:40 10° W 02:56:26 52° W 02:56:26 52° W
Exosat Rocket 3.6 02:52:31 10° S 02:58:49 72° ESE 03:03:54 10° NNE
STPSAT 2 (USA 217) 4.4 02:54:40 10° NNW 02:59:10 89° ENE 02:59:31 76° SSE
Cosmos 1092 Rocket 4.5 02:53:42 10° N 02:58:55 39° ENE 02:58:55 39° ENE
Cosmos 1025 Rocket 2.9 02:55:57 10° N 03:00:21 87° W 03:00:46 73° S
Cosmos 1867 3.4 02:55:48 10° NNW 03:01:16 76° ENE 03:02:04 63° ESE
Milstar 3 Cent rocket 3.1 03:01:05 10° SW 03:06:06 32° S 03:06:06 32° S
DMSP B5D2-2 4.4 03:08:58 10° N 03:14:12 65° WNW 03:19:25 10° SSW
SJ-6B 4.2 03:19:57 33° NW 03:19:57 33° NW 03:22:12 10° NNW
NOSS 3-2 (A) 4.1 03:14:40 10° NNW 03:22:22 60° NE 03:23:35 55° E
Cosmos 1125 Rocket 3.8 03:17:26 10° SSW 03:22:41 67° WNW 03:27:59 10° NNE
Resurs 01 Rocket 3.8 03:27:09 17° N 03:27:09 17° N 03:28:19 10° N
ISS -0.6 03:24:49 10° NW 03:25:56 11° NNW 03:26:13 11° NNW
USA 234 4.0 03:32:20 10° NNE 03:38:34 49° NW 03:44:48 10° WSW
NOSS 3-2 (C) 4.2 03:48:59 10° NNW 03:55:59 61° NNE 03:55:59 61° NNE
ATLAS 2A CENTAUR R/B 4.4 03:20:01 10° W 04:08:32 57° SSW 04:10:53 52° S
ATLAS 2AS CENTAUR R/B 3.3 04:09:58 10° SW 04:20:13 46° N 04:25:43 10° NNE
CENTAUR R/B 3.6 04:27:55 10° NNW 04:34:28 60° NW 04:34:28 60° NW
ATLAS 3B R/B 4.4 04:36:03 10° NNW 04:39:00 24° N 04:39:00 24° N
Cosmos 1980 Rocket 4.3 09:22:31 22° ENE 09:22:31 22° ENE 09:25:01 10° NE
Lacrosse 5 4.1 09:48:47 20° NNE 09:48:47 20° NNE 09:50:27 10° NNE
BREEZE-M DEB (TANK) 4.1 09:50:54 72° E 09:50:54 72° E 10:05:59 10° ENE
USA 267 4.2 09:46:56 10° NNE 09:51:38 38° N 09:51:38 38° N
ADEOS II 4.4 10:02:10 10° N 10:03:06 15° N 10:03:06 15° N
Cosmos 2278 4.3 10:15:56 50° NNE 10:15:56 50° NNE 10:20:06 10° NNE
IDEFIX/ARIANE 42P 3.5 10:14:16 10° N 10:17:40 42° N 10:17:40 42° N
USA 234 4.2 10:18:14 10° ESE 10:24:22 45° NE 10:30:31 10° NNW
MSX 3.8 10:18:55 10° NNE 10:24:42 75° ESE 10:24:50 74° ESE
ARIANE 5 R/B 4.1 10:21:15 10° N 10:23:29 26° N 10:23:29 26° N
SJ 16-02 3.9 10:34:39 10° NNE 10:37:57 20° ENE 10:41:14 10° ESE
H-2A R/B 3.2 10:34:41 10° SE 10:38:46 43° ENE 10:42:58 10° N
PSLV R/B 4.5 10:37:32 10° NNE 10:41:34 44° E 10:42:13 40° SE
Cosmos 1812 3.4 10:47:59 52° ENE 10:47:59 52° ENE 10:51:22 10° NNE
ERBS 3.9 10:54:40 31° NNE 10:54:40 31° NNE 10:56:35 10° NE
ASTEX 1 4.4 10:50:44 10° N 10:53:47 32° NW 10:53:47 32° NW
SL-4 R/B 2.9 10:55:28 44° SSE 10:56:11 48° SE 11:00:43 10° ENE
Cosmos 1500 3.8 10:54:54 10° N 10:58:41 55° E 11:02:25 10° SSE
CZ-2C R/B 2.7 10:53:44 10° NNE 10:58:52 71° ESE 11:02:26 20° S
Cosmos 1697 Rocket 4.4 11:01:19 18° NW 11:01:19 18° NW 11:04:01 10° NNW
Cosmos 1727 Rocket 4.4 10:55:33 10° S 11:01:49 66° E 11:08:06 10° NNE
Cosmos 1980 Rocket 3.0 11:04:19 33° WNW 11:04:19 33° WNW 11:09:10 10° N
Landsat 5 3.5 10:59:40 10° SSE 11:04:10 89° WSW 11:08:42 10° NNW
PAYLOAD A 3.6 11:00:36 10° NNE 11:05:18 85° WNW 11:07:00 40° SSW
Cosmos 468 Rocket 4.1 11:04:21 24° S 11:07:37 75° ESE 11:12:54 10° NNE
Cosmos 2322 Rocket 2.8 11:04:27 12° S 11:09:34 57° ESE 11:15:08 10° NNE
Cosmos 1339 Rocket 4.5 11:07:37 31° SSW 11:10:33 59° W 11:16:44 10° N
Meteor 1-10 Rocket 4.2 11:07:58 18° S 11:12:21 82° W 11:18:13 10° N
SL-16 R/B 2.2 11:13:21 20° SSW 11:17:25 85° ESE 11:23:07 10° NNE
Cosmos 2263 Rocket 2.8 11:12:43 10° NNW 11:18:18 59° ENE 11:23:54 10° SSE
Meteor 2-9 4.5 11:12:53 10° NNW 11:18:22 73° W 11:23:42 10° S
Meteor 1-14 Rocket 4.5 11:19:22 10° NNW 11:24:35 41° W 11:29:44 10° SSW
OE (NEXTSAT) 4.2 11:24:47 61° WSW 11:25:01 63° SW 11:28:26 10° SE
deb Chang Zheng 4 3.8 11:23:33 10° NNE 11:27:51 70° ESE 11:32:04 10° S
Lacrosse 5 4.0 11:27:59 11° NW 11:29:26 12° NNW 11:31:18 10° N
Cosmos 1238 Rocket 4.3 11:24:00 10° NNW 11:30:00 39° W 11:35:26 10° SSW
Cosmos 2227 4.2 11:24:53 10° NNW 11:30:33 82° ENE 11:36:10 10° SSE
Cosmos 1707 Rocket 3.4 11:27:36 10° S 11:31:54 83° W 11:36:15 10° N
Cosmos 921 Rocket 3.9 11:32:00 28° WNW 11:32:00 28° WNW 11:35:34 10° N
Centaur D-1AR AC-48 4.2 11:30:06 10° S 11:33:31 18° SE 11:40:22 10° ESE
IRIDIUM 104 4.3 11:32:31 10° N 11:37:38 57° W 11:42:43 10° SSW
Cosmos 2228 Rocket 4.3 11:38:53 22° WNW 11:38:53 22° WNW 11:42:01 10° NNW
Cosmos 1898 Rocket 4.1 11:34:32 10° N 11:39:45 61° ENE 11:44:58 10° SSE
Meteor 1-5 Rocket 4.1 11:36:18 10° NNW 11:41:30 56° W 11:46:48 10° S
Meteor 1-4 Rocket 3.2 11:43:45 29° W 11:44:12 30° WNW 11:47:19 10° NNW
X-37B 3.2 11:43:15 10° NNW 11:45:10 15° N 11:47:05 10° NE
USA 32 4.0 11:46:04 10° N 11:51:17 70° W 11:56:29 10° S
Cosmos 1536 2.9 11:49:05 10° N 11:53:10 84° E 11:57:13 10° S
ADEOS 3.6 11:49:39 10° N 11:54:47 61° WNW 11:59:54 10° SSW
